Wind_Speed
13 14 13 11 11 10 10 12 14 14 11 10 11 12 12 11 12 10 12 13 14 16 17 16 15 13 11 10 9 8 8 9 9 9 10 11 12 13 14 14 14 15 16 17
14 13 12 12 11 10 11 10 12 13 11 10 10 11 12 11 11 9 8 7 7 9 12 10 9 8 8 7 7 6 6 6 7 8 9 10 10 11 11 12 13 14 15 16
10 12 13 13 12 11 12 11 12 12 12 11 9 9 13 12 12 11 9 6 2 1 2 4 4 4 3 3 3 3 4 5 6 7 9 10 11 11 12 12 13 14 15 15
9 11 13 13 12 12 13 12 10 9 9 9 10 12 11 12 11 10 10 9 6 5 4 3 2 2 2 1 0 2 4 5 7 9 10 11 12 13 14 14 15 15 16 16
11 13 13 14 14 13 11 9 7 8 9 9 6 11 12 10 11 9 8 8 6 6 5 5 4 4 4 3 3 4 6 8 9 10 11 13 14 14 15 16 16 16 16 16
10 11 11 11 12 11 9 9 11 13 12 7 10 9 12 12 11 9 8 7 6 5 5 5 5 5 4 4 5 6 8 9 11 12 13 14 15 16 17 17 17 17 17 17
17 16 11 10 9 13 10 9 15 18 16 12 14 9 11 12 11 10 8 6 6 5 5 5 5 5 5 6 8 9 10 11 13 14 15 15 16 17 18 19 19 19 19 19
19 19 13 12 10 13 11 7 11 12 14 11 7 9 13 12 12 11 9 8 7 6 6 6 6 7 7 8 9 10 12 13 14 15 16 17 17 18 19 19 19 19 20 20
14 16 17 15 14 12 9 7 8 7 7 8 4 9 12 11 13 13 12 10 9 8 7 7 7 8 8 9 10 12 13 14 15 16 17 18 19 20 20 20 20 20 20 21
13 14 13 14 13 9 8 7 7 4 6 10 9 6 9 16 17 16 14 12 11 10 10 10 10 10 10 11 12 13 14 15 16 17 17 18 19 20 20 21 21 21 21 22
14 14 12 14 13 8 9 9 7 6 7 7 12 9 11 16 19 19 16 14 13 13 12 12 12 12 12 12 12 13 14 15 16 18 19 19 20 20 20 21 21 22 23 24
16 14 13 15 15 11 8 9 10 9 10 8 9 12 12 15 20 21 19 18 16 16 16 15 14 13 13 13 13 14 15 16 17 19 20 21 21 22 22 22 22 23 24 26
17 15 14 16 17 14 9 9 9 9 9 8 10 14 14 16 18 19 18 19 19 17 17 17 16 15 15 15 15 15 16 17 18 20 21 22 23 23 24 24 25 26 27 29
17 16 15 16 15 11 7 5 7 10 10 11 13 14 15 16 18 21 21 20 19 18 17 18 17 17 17 17 17 17 18 19 20 21 23 24 25 25 26 27 28 29 30 32
17 15 14 13 13 12 10 11 11 13 14 14 14 14 16 19 21 23 22 21 20 19 18 18 18 18 18 18 18 19 20 21 22 24 25 26 27 28 28 29 30 32 33 34
19 19 16 14 11 12 11 12 13 13 13 13 13 14 18 20 22 22 22 21 21 20 20 19 19 19 19 20 20 21 22 23 24 26 27 28 29 30 31 32 33 34 36 37
19 20 17 13 12 14 13 13 15 14 12 13 14 15 18 20 22 21 21 21 21 21 21 21 21 21 21 21 22 23 23 25 26 27 29 29 30 31 33 34 35 37 38 39
19 17 17 14 13 14 12 12 13 13 12 13 15 16 18 19 19 20 20 20 21 21 22 23 23 23 23 23 24 25 26 27 28 29 30 31 32 33 35 36 38 39 40 41
20 18 16 14 15 16 16 18 18 17 16 15 16 17 19 19 19 21 22 22 21 23 24 25 25 25 26 26 26 27 29 30 31 32 33 34 35 36 38 39 41 42 44 43
19 17 16 16 16 18 21 21 20 19 20 18 17 18 19 20 20 22 24 26 27 27 27 27 27 28 29 29 30 30 31 33 34 35 36 37 39 40 42 43 43 45 45 45
19 17 18 17 16 19 24 23 21 21 23 20 18 19 22 25 26 26 27 28 30 31 31 30 30 30 31 32 33 33 34 36 38 39 40 41 42 44 45 46 46 47 47 47
15 18 22 22 21 24 25 25 24 24 24 23 24 26 27 29 29 29 29 30 31 32 32 33 33 33 34 35 36 36 37 39 41 43 44 46 47 48 49 48 48 48 48 49
19 22 24 26 26 27 29 28 25 25 27 28 30 30 30 31 31 32 32 33 33 34 34 35 36 36 37 38 39 40 41 43 44 46 47 48 49 50 50 50 50 50 50 52
25 27 28 28 30 31 31 28 28 29 30 32 33 33 33 33 34 35 35 35 35 36 36 37 38 39 40 41 42 43 44 46 47 48 49 50 51 51 52 52 53 53 53 54
29 30 30 30 34 35 31 31 32 33 34 34 34 35 35 35 36 36 37 37 37 38 38 39 40 41 42 43 44 45 47 47 49 50 51 52 53 53 54 54 55 55 55 55
30 32 32 34 35 36 37 36 37 37 37 36 36 36 36 36 37 37 38 38 39 40 40 41 42 43 44 45 46 47 48 49 50 52 53 54 55 55 56 57 56 56 57 56
Wind_Direction
18 5 5 348 329 325 320 321 325 331 340 345 340 336 337 335 331 304 281 278 271 260 260 261 257 257 258 262 269 281 287 295 300 305 309 312 312 311 310 310 309 308 307 304
351 336 339 334 328 324 313 315 323 337 348 349 354 2 0 4 351 341 317 299 290 258 253 247 239 244 255 256 265 280 291 305 315 321 324 324 323 323 323 322 320 319 316 312
320 311 315 321 320 314 317 323 335 341 340 340 358 11 14 14 8 3 0 356 358 228 194 212 217 230 245 254 258 284 305 323 332 337 338 338 337 336 335 331 328 326 323 321
304 295 309 314 310 313 317 330 332 326 321 328 358 2 5 10 11 11 18 34 54 84 93 107 114 117 136 133 12 342 347 353 352 349 347 346 345 342 340 336 333 329 326 324
300 305 309 304 304 310 316 315 308 289 280 280 339 355 357 9 14 19 20 31 50 68 76 86 89 85 80 67 35 10 6 3 357 353 350 348 345 341 337 334 331 329 326 324
294 288 291 293 307 315 319 317 315 310 295 316 9 358 339 356 3 8 13 21 38 55 65 68 67 60 50 35 21 12 5 358 353 349 344 340 336 334 332 330 328 326 324 321
306 289 271 295 318 311 321 324 324 336 356 13 16 358 338 348 349 351 358 7 16 26 33 36 33 28 21 13 9 5 358 352 347 344 339 334 331 328 326 325 324 322 320 318
300 308 310 314 320 315 316 311 315 337 346 347 349 329 336 342 342 341 344 352 360 7 9 9 8 5 1 359 358 355 351 346 341 337 334 331 328 325 324 323 322 321 320 319
290 306 310 308 308 310 300 287 303 327 323 303 292 307 323 338 337 337 337 340 344 347 348 350 351 349 347 347 347 345 342 339 336 332 330 328 326 325 325 324 323 322 321 320
285 286 291 292 305 311 312 292 277 270 309 318 307 276 298 326 328 329 328 328 331 332 334 337 339 339 337 336 335 334 333 332 330 328 327 325 323 322 322 321 321 320 320 319
292 287 290 284 281 273 292 304 287 260 246 282 311 322 307 316 320 324 323 322 323 324 324 325 326 325 325 324 323 323 324 324 324 324 323 322 320 320 320 319 318 318 318 318
286 281 273 271 272 262 254 262 272 270 257 252 287 296 291 305 312 317 318 314 315 317 316 316 317 316 314 314 314 315 316 318 319 319 320 320 319 318 318 317 316 315 315 316
292 283 275 272 270 264 245 229 251 273 271 262 271 286 298 303 303 305 308 308 308 308 306 306 308 307 305 305 306 308 309 311 313 314 315 317 317 316 316 315 315 315 315 316
297 288 276 281 303 321 319 298 284 284 278 272 275 286 293 292 293 298 301 302 301 302 300 300 301 301 299 299 300 303 306 308 310 313 315 315 316 316 316 315 315 315 315 315
296 293 278 271 283 293 296 294 282 276 273 270 274 281 280 279 284 290 296 299 298 298 297 296 297 297 296 296 298 301 304 307 310 312 314 314 315 315 316 316 316 315 315 315
293 297 284 271 264 270 268 269 272 274 275 270 265 266 269 273 281 289 296 296 294 295 295 295 296 296 295 295 297 300 303 306 309 311 312 313 313 314 314 315 316 315 315 314
288 291 291 278 262 261 263 253 259 256 258 265 264 265 271 277 284 292 295 295 295 295 295 295 296 296 295 295 297 299 302 305 307 309 310 311 311 311 313 314 315 316 316 315
289 296 291 283 266 263 264 257 266 265 263 271 274 275 281 285 292 295 294 295 297 298 298 298 297 296 295 295 296 299 301 303 305 306 307 308 310 311 313 313 315 316 316 316
276 290 294 282 270 267 260 250 242 244 247 254 267 273 277 283 293 295 296 298 295 296 298 296 295 296 296 295 295 297 299 302 304 304 305 307 309 310 312 313 315 316 316 316
261 281 294 291 275 270 270 271 258 253 250 250 264 271 272 279 286 288 291 294 294 296 296 295 295 295 295 295 296 297 298 301 303 304 306 307 309 310 310 312 313 315 316 315
262 281 296 295 280 269 265 265 265 259 255 260 268 275 277 279 285 285 284 285 288 291 292 293 292 292 293 294 295 297 299 301 302 303 305 307 308 309 309 311 313 314 315 315
276 284 288 286 275 264 269 264 259 259 267 274 277 281 281 281 282 282 282 283 285 287 288 289 289 291 292 292 294 296 298 299 300 302 304 306 307 308 309 310 311 312 314 314
265 263 267 273 271 272 276 276 273 273 278 281 281 280 280 281 282 282 283 284 286 287 287 288 289 290 290 292 293 295 296 298 299 300 302 303 304 306 307 309 311 312 313 313
260 263 265 267 274 277 277 283 287 287 284 282 281 280 281 282 283 284 285 286 286 286 286 287 288 288 289 290 291 292 294 296 297 299 299 300 303 305 305 306 309 311 311 312
262 266 267 270 273 276 282 288 291 289 286 283 283 283 284 285 285 286 287 287 287 287 287 287 287 288 289 290 291 292 294 295 296 297 299 300 302 303 304 305 306 307 308 309
262 263 265 268 274 278 282 285 285 285 285 286 286 286 287 287 287 287 288 288 288 288 288 288 288 289 289 290 291 292 293 295 296 297 298 300 301 301 303 303 304 305 306 306
Height
5886 5885 5884 5885 5884 5883 5880 5877 5875 5872 5870 5869 5866 5862 5859 5857 5855 5853 5853 5853 5853 5853 5855 5855 5856 5858 5859 5861 5862 5862 5862 5862 5861 5860 5859 5858 5857 5856 5854 5853 5851 5849 5848 5847
5887 5886 5886 5885 5883 5881 5878 5877 5875 5873 5871 5869 5866 5863 5860 5857 5856 5853 5851 5850 5849 5850 5851 5852 5854 5856 5857 5859 5860 5860 5860 5860 5859 5858 5857 5856 5855 5854 5852 5850 5848 5847 5845 5844
5889 5888 5886 5884 5882 5880 5878 5876 5875 5873 5870 5868 5866 5864 5861 5859 5857 5855 5853 5850 5849 5850 5851 5852 5854 5856 5857 5858 5859 5859 5859 5858 5857 5857 5855 5854 5853 5851 5850 5848 5847 5845 5843 5841
5888 5886 5885 5883 5881 5879 5878 5876 5874 5872 5870 5867 5866 5864 5862 5860 5859 5857 5855 5853 5851 5851 5852 5853 5855 5855 5856 5857 5858 5858 5857 5856 5856 5855 5853 5852 5851 5849 5848 5846 5844 5843 5841 5839
5886 5885 5884 5882 5880 5878 5877 5875 5873 5869 5866 5864 5863 5863 5862 5861 5860 5859 5857 5856 5854 5854 5854 5854 5855 5856 5856 5856 5856 5856 5856 5855 5854 5853 5851 5850 5849 5847 5846 5844 5842 5840 5839 5837
5883 5882 5881 5879 5878 5876 5875 5873 5871 5867 5862 5860 5862 5864 5862 5861 5861 5860 5859 5858 5856 5856 5856 5855 5855 5855 5855 5855 5855 5855 5854 5853 5852 5851 5849 5848 5847 5845 5843 5842 5840 5838 5836 5834
5880 5876 5874 5876 5875 5874 5873 5873 5870 5865 5861 5861 5863 5865 5863 5862 5861 5860 5859 5858 5857 5856 5855 5855 5855 5855 5854 5854 5853 5853 5852 5851 5850 5849 5847 5846 5844 5843 5841 5839 5837 5835 5833 5831
5879 5874 5871 5873 5874 5873 5872 5872 5871 5869 5867 5865 5865 5864 5863 5862 5861 5860 5859 5858 5857 5856 5855 5855 5854 5854 5853 5853 5852 5851 5850 5849 5848 5847 5845 5844 5842 5840 5838 5836 5834 5832 5829 5827
5879 5876 5873 5872 5872 5872 5871 5870 5870 5869 5869 5866 5863 5863 5861 5861 5860 5859 5858 5857 5856 5856 5855 5854 5853 5853 5852 5851 5850 5849 5848 5847 5846 5845 5843 5841 5839 5837 5835 5832 5830 5828 5825 5823
5876 5875 5874 5871 5870 5869 5869 5868 5868 5868 5867 5866 5863 5861 5860 5860 5859 5859 5857 5856 5855 5855 5854 5852 5851 5851 5850 5849 5848 5847 5846 5845 5844 5842 5841 5839 5837 5834 5831 5829 5826 5824 5821 5818
5873 5872 5871 5869 5866 5865 5866 5867 5866 5866 5865 5865 5862 5861 5859 5859 5858 5857 5856 5854 5854 5853 5852 5851 5850 5849 5848 5847 5846 5845 5844 5843 5841 5839 5837 5835 5833 5831 5828 5826 5823 5819 5816 5813
5869 5869 5868 5865 5863 5861 5862 5864 5864 5864 5864 5864 5863 5863 5857 5857 5856 5855 5854 5853 5852 5851 5849 5848 5847 5847 5846 5845 5844 5843 5841 5840 5838 5836 5834 5832 5829 5827 5824 5821 5818 5815 5811 5808
5865 5865 5864 5862 5861 5858 5858 5860 5861 5861 5861 5862 5862 5862 5856 5855 5854 5853 5853 5851 5850 5849 5847 5846 5845 5844 5843 5842 5841 5840 5838 5837 5835 5833 5831 5828 5825 5822 5819 5816 5813 5809 5805 5801
5861 5860 5861 5859 5856 5855 5855 5857 5858 5859 5859 5859 5858 5857 5855 5853 5852 5851 5850 5849 5847 5846 5845 5843 5842 5841 5840 5838 5837 5836 5834 5833 5831 5828 5826 5823 5820 5817 5814 5811 5807 5803 5799 5795
5857 5857 5856 5856 5855 5854 5854 5856 5856 5856 5856 5856 5856 5854 5853 5851 5849 5848 5847 5845 5844 5842 5841 5840 5839 5837 5836 5835 5833 5831 5830 5828 5825 5823 5821 5818 5815 5812 5808 5805 5801 5797 5792 5788
5853 5852 5851 5851 5852 5852 5853 5854 5854 5853 5852 5852 5852 5851 5849 5847 5846 5845 5844 5842 5840 5839 5837 5836 5835 5833 5832 5830 5829 5827 5825 5822 5820 5817 5815 5812 5809 5805 5801 5798 5794 5789 5785 5780
5849 5848 5847 5847 5847 5847 5848 5848 5848 5848 5847 5847 5847 5846 5844 5843 5842 5841 5839 5838 5836 5834 5833 5831 5830 5829 5827 5825 5823 5821 5819 5817 5814 5811 5808 5805 5802 5798 5794 5790 5786 5781 5776 5771
5844 5843 5843 5843 5843 5843 5845 5842 5843 5842 5842 5842 5842 5841 5840 5839 5838 5836 5834 5833 5831 5830 5828 5826 5825 5823 5822 5820 5817 5815 5813 5810 5807 5804 5801 5798 5794 5790 5786 5781 5777 5772 5767 5761
5840 5839 5838 5839 5838 5838 5838 5837 5836 5837 5837 5837 5836 5836 5835 5834 5833 5830 5828 5827 5826 5825 5823 5821 5819 5817 5815 5813 5811 5808 5806 5803 5800 5797 5793 5790 5786 5782 5777 5772 5767 5762 5756 5751
5833 5833 5834 5834 5833 5833 5833 5830 5830 5831 5829 5828 5827 5829 5829 5828 5828 5826 5823 5821 5819 5817 5817 5815 5812 5810 5808 5805 5803 5800 5798 5794 5791 5788 5784 5781 5777 5772 5767 5762 5757 5751 5746 5740
5822 5825 5827 5828 5828 5828 5826 5825 5825 5826 5822 5821 5820 5822 5822 5821 5821 5820 5818 5816 5814 5812 5810 5808 5805 5803 5800 5797 5795 5792 5789 5785 5782 5778 5774 5770 5766 5762 5757 5752 5746 5741 5735 5730
5818 5821 5822 5822 5821 5821 5819 5819 5818 5817 5816 5814 5814 5815 5815 5814 5813 5811 5810 5809 5807 5805 5802 5800 5796 5794 5792 5789 5786 5783 5780 5776 5772 5768 5764 5760 5755 5750 5746 5741 5736 5730 5724 5718
5816 5817 5816 5816 5814 5813 5812 5811 5810 5811 5811 5810 5809 5809 5808 5806 5805 5803 5802 5800 5798 5796 5793 5791 5788 5785 5782 5779 5776 5773 5770 5766 5762 5758 5753 5749 5744 5739 5734 5729 5724 5718 5712 5706
5809 5810 5810 5807 5803 5803 5802 5803 5804 5804 5804 5803 5802 5801 5799 5798 5796 5794 5792 5790 5788 5786 5783 5781 5778 5775 5772 5769 5766 5763 5759 5755 5751 5747 5742 5737 5732 5727 5722 5717 5712 5706 5700 5694
5804 5804 5803 5801 5799 5796 5794 5796 5796 5796 5795 5794 5793 5791 5790 5788 5786 5784 5782 5780 5778 5775 5773 5770 5768 5765 5762 5758 5755 5751 5747 5744 5739 5735 5730 5725 5720 5715 5710 5705 5700 5694 5688 5682
5797 5797 5797 5796 5793 5791 5789 5790 5788 5787 5786 5785 5783 5782 5780 5778 5776 5774 5771 5769 5767 5764 5762 5759 5756 5753 5750 5746 5743 5739 5735 5731 5726 5722 5717 5711 5706 5701 5696 5691 5686 5681 5675 5670